Staples, MN

4:49 PM CST on January 22, 2018 (GMT -0600)
Staples Municipal

Weather History for KSAZ - March, 2013

Change the Weather History Date:

Thursday, March 21, 2013

  Actual Average Record
Temperature  
Mean Temperature 4 °F -  
Max Temperature 23 °F 38 °F 64 °F (2012)
Min Temperature -16 °F 18 °F -16 °F (2013)
Degree Days  
Heating Degree Days 62    
Moisture  
Dew Point -3 °F    
Average Humidity 74    
Maximum Humidity 92    
Minimum Humidity 54    
Precipitation  
Precipitation 0.00 in - - ()
Sea Level Pressure  
Sea Level Pressure 30.06 in    
Wind  
Wind Speed 2 mph (West)    
Max Wind Speed 6 mph    
Max Gust Speed -    
Visibility 10 miles    
Events      
Averages and records for this station are not official NWS values.
T = Trace of Precipitation, MM = Missing Value Source: NWS Daily Summary

Daily Weather History Graph

Daily Weather History Graph

Search for Another Location

Airport or City:

Trip Planner

Search our weather history database for the weather conditions in past years. The results will help you decide how hot, cold, wet, or windy it might be!

Date:

Astronomy

Mar. 21, 2013 Rise Set
Actual Time 7:19 AM CDT 7:33 PM CDT
Civil Twilight 6:49 AM CDT 8:03 PM CDT
Nautical Twilight 6:14 AM CDT 8:39 PM CDT
Astronomical Twilight 5:38 AM CDT 9:15 PM CDT
Moon 1:47 PM CDT (3/21) 3:59 AM CDT (3/21)
Length of Visible Light 13h 13m
Length of Day
12h 13m
Waxing Gibbous, 69% of the Moon is Illuminated
Mar 21
Waxing Gibbous
Mar 27
Full
Apr 2
Last Quarter
Apr 10
New
Apr 18
First Quarter

Hourly Weather History & Observations

Time (CDT) Temp. Windchill Dew Point Humidity Pressure Visibility Wind Dir Wind Speed Gust Speed Precip Events Conditions
12:13 AM -4.0 °F -12.4 °F -7.6 °F 85% 30.12 in 10.0 mi NW 3.5 mph - N/A   Clear
12:33 AM -7.6 °F -18.8 °F -11.2 °F 84% 30.12 in 10.0 mi WNW 4.6 mph - N/A   Clear
1:14 AM -7.6 °F - -9.4 °F 92% 30.11 in 10.0 mi Calm Calm - N/A   Clear
1:33 AM -7.6 °F - -11.2 °F 84% 30.10 in 10.0 mi Calm Calm - N/A   Clear
1:53 AM -5.8 °F - -9.4 °F 84% 30.10 in 10.0 mi Calm Calm - N/A   Clear
2:14 AM -5.8 °F - -9.4 °F 84% 30.09 in 10.0 mi Calm Calm - N/A   Clear
2:33 AM -7.6 °F - -11.2 °F 84% 30.09 in 10.0 mi Calm Calm - N/A   Clear
2:49 AM -9.4 °F - -11.2 °F 92% 30.09 in 10.0 mi Calm Calm - N/A   Clear
3:11 AM -9.4 °F - -13.0 °F 84% 30.08 in 10.0 mi Calm Calm - N/A   Clear
3:33 AM -9.4 °F - -13.0 °F 84% 30.08 in 10.0 mi Calm Calm - N/A   Clear
3:53 AM -14.8 °F - -16.6 °F 92% 30.08 in 10.0 mi Calm Calm - N/A   Clear
4:14 AM -11.2 °F - -14.8 °F 84% 30.07 in 10.0 mi Calm Calm - N/A   Clear
4:33 AM -13.0 °F - -16.6 °F 84% 30.07 in 10.0 mi Calm Calm - N/A   Clear
4:53 AM -11.2 °F -20.6 °F -14.8 °F 84% 30.07 in 10.0 mi WNW 3.5 mph - N/A   Clear
5:14 AM -14.8 °F - -18.4 °F 84% 30.07 in 10.0 mi Calm Calm - N/A   Clear
5:33 AM -14.8 °F - -18.4 °F 84% 30.07 in 10.0 mi Calm Calm - N/A   Clear
5:53 AM -14.8 °F - -18.4 °F 84% 30.07 in 10.0 mi Calm Calm - N/A   Clear
6:14 AM -14.8 °F - -18.4 °F 84% 30.07 in 10.0 mi Calm Calm - N/A   Clear
6:33 AM -13.0 °F - -16.6 °F 84% 30.07 in 10.0 mi Calm Calm - N/A   Clear
6:54 AM -14.8 °F - -18.4 °F 84% 30.08 in 10.0 mi Calm Calm - N/A   Clear
7:13 AM -16.6 °F -26.8 °F -20.2 °F 84% 30.08 in 10.0 mi WNW 3.5 mph - N/A   Clear
7:33 AM -16.6 °F - -20.2 °F 84% 30.09 in 10.0 mi Calm Calm - N/A   Clear
7:54 AM -16.6 °F - -22.0 °F 76% 30.08 in 10.0 mi Calm Calm - N/A   Clear
8:13 AM -14.8 °F - -16.6 °F 92% 30.08 in 10.0 mi Calm Calm - N/A   Clear
8:34 AM -11.2 °F - -14.8 °F 84% 30.09 in 10.0 mi Calm Calm - N/A   Clear
8:53 AM -9.4 °F - -14.8 °F 77% 30.08 in 10.0 mi Calm Calm - N/A   Clear
9:13 AM -5.8 °F - -7.6 °F 92% 30.08 in 10.0 mi Calm Calm - N/A   Clear
9:33 AM -2.2 °F - -5.8 °F 85% 30.07 in 10.0 mi Calm Calm - N/A   Clear
9:53 AM 1.4 °F - -2.2 °F 85% 30.07 in 10.0 mi Calm Calm - N/A   Clear
10:14 AM -0.4 °F - -2.2 °F 92% 30.07 in 10.0 mi Calm Calm - N/A   Clear
10:33 AM 3.2 °F - -0.4 °F 85% 30.07 in 10.0 mi Calm Calm - N/A   Clear
10:53 AM 6.8 °F - 1.4 °F 79% 30.07 in 10.0 mi Calm Calm - N/A   Clear
11:14 AM 10.4 °F - 3.2 °F 73% 30.07 in 10.0 mi Calm Calm - N/A   Clear
11:33 AM 12.2 °F 6.1 °F 3.2 °F 67% 30.07 in 10.0 mi West 3.5 mph - N/A   Clear
11:53 AM 15.8 °F 10.2 °F 5.0 °F 62% 30.07 in 10.0 mi West 3.5 mph - N/A   Clear
12:14 PM 15.8 °F 8.6 °F 5.0 °F 62% 30.07 in 10.0 mi West 4.6 mph - N/A   Clear
12:33 PM 17.6 °F 12.3 °F 5.0 °F 58% 30.06 in 10.0 mi WSW 3.5 mph - N/A   Clear
12:53 PM 17.6 °F 9.3 °F 6.8 °F 63% 30.06 in 10.0 mi West 5.8 mph - N/A   Clear
1:14 PM 19.4 °F 11.5 °F 6.8 °F 58% 30.06 in 10.0 mi West 5.8 mph - N/A   Clear
1:33 PM 19.4 °F 12.8 °F 6.8 °F 58% 30.05 in 10.0 mi West 4.6 mph - N/A   Clear
1:53 PM 19.4 °F 12.8 °F 6.8 °F 58% 30.04 in 10.0 mi West 4.6 mph - N/A   Clear
2:13 PM 19.4 °F 12.8 °F 6.8 °F 58% 30.04 in 10.0 mi West 4.6 mph - N/A   Clear
2:33 PM 21.2 °F 13.6 °F 8.6 °F 58% 30.03 in 10.0 mi West 5.8 mph - N/A   Clear
2:54 PM 21.2 °F - 6.8 °F 54% 30.03 in 10.0 mi Calm Calm - N/A   Clear
3:13 PM 21.2 °F 14.9 °F 6.8 °F 54% 30.02 in 10.0 mi West 4.6 mph - N/A   Clear
3:33 PM 21.2 °F 14.9 °F 6.8 °F 54% 30.02 in 10.0 mi West 4.6 mph - N/A   Clear
3:53 PM 21.2 °F 14.9 °F 8.6 °F 58% 30.02 in 10.0 mi West 4.6 mph - N/A   Clear
4:13 PM 23.0 °F 17.0 °F 8.6 °F 54% 30.02 in 10.0 mi West 4.6 mph - N/A   Clear
4:33 PM 23.0 °F 17.0 °F 10.4 °F 59% 30.02 in 10.0 mi West 4.6 mph - N/A   Clear
4:53 PM 23.0 °F 15.8 °F 10.4 °F 59% 30.01 in 10.0 mi West 5.8 mph - N/A   Clear
5:13 PM 21.2 °F 14.9 °F 10.4 °F 63% 30.01 in 10.0 mi West 4.6 mph - N/A   Clear
5:33 PM 21.2 °F 14.9 °F 10.4 °F 63% 30.01 in 10.0 mi West 4.6 mph - N/A   Clear
5:54 PM 21.2 °F 14.9 °F 8.6 °F 58% 30.02 in 10.0 mi West 4.6 mph - N/A   Clear
6:13 PM 19.4 °F 12.8 °F 8.6 °F 63% 30.02 in 10.0 mi West 4.6 mph - N/A   Clear
6:33 PM 19.4 °F 12.8 °F 8.6 °F 63% 30.02 in 10.0 mi West 4.6 mph - N/A   Clear
6:53 PM 19.4 °F 11.5 °F 6.8 °F 58% 30.02 in 10.0 mi West 5.8 mph - N/A   Clear
7:14 PM 14.0 °F 6.5 °F 5.0 °F 67% 30.02 in 10.0 mi West 4.6 mph - N/A   Clear
7:33 PM 15.8 °F 10.2 °F 5.0 °F 62% 30.02 in 10.0 mi WNW 3.5 mph - N/A   Clear
7:53 PM 12.2 °F 6.1 °F 3.2 °F 67% 30.02 in 10.0 mi WNW 3.5 mph - N/A   Clear
8:13 PM 10.4 °F 4.0 °F 3.2 °F 73% 30.02 in 10.0 mi WNW 3.5 mph - N/A   Clear
8:33 PM 12.2 °F 4.3 °F 3.2 °F 67% 30.03 in 10.0 mi West 4.6 mph - N/A   Clear
8:54 PM 10.4 °F 2.2 °F 1.4 °F 67% 30.03 in 10.0 mi West 4.6 mph - N/A   Clear
9:13 PM 10.4 °F - 3.2 °F 73% 30.04 in 10.0 mi Calm Calm - N/A   Clear
9:33 PM 6.8 °F - -0.4 °F 72% 30.04 in 10.0 mi Calm Calm - N/A   Clear
9:53 PM 6.8 °F -0.1 °F 1.4 °F 79% 30.04 in 10.0 mi West 3.5 mph - N/A   Clear
10:14 PM 6.8 °F -0.1 °F 1.4 °F 79% 30.05 in 10.0 mi West 3.5 mph - N/A   Clear
10:33 PM 6.8 °F - 1.4 °F 79% 30.05 in 10.0 mi Calm Calm - N/A   Clear
10:53 PM 8.6 °F 0.1 °F 1.4 °F 73% 30.05 in 10.0 mi West 4.6 mph - N/A   Clear
11:14 PM 3.2 °F - -0.4 °F 85% 30.05 in 10.0 mi Calm Calm - N/A   Clear
11:33 PM 5.0 °F - -0.4 °F 78% 30.05 in 10.0 mi Calm Calm - N/A   Clear
11:53 PM -0.4 °F -12.0 °F -4.0 °F 85% 30.05 in 10.0 mi West 5.8 mph - N/A   Clear